Wenatchee, WA
on Saturday, January 26, 2013

Saturday
Previous Day Next Day
Daily Summary
 ActualAverageRecord
Temperature
Mean Temperature °F 29°F  
Max Temperature 36°F 35°F 52°F (1962)
Min Temperature 29°F 23°F -4°F (1972)
Degree Days
Heating Degree Days 32 36  
Month to date heating degree days 1110 980  
Since 1 July heating degree days 3773 4078  
Cooling Degree Days 0 0  
Month to date cooling degree days 0 0  
Year to date cooling degree days 0 0  
Moisture
Dew Point 24°F   
Average Humidity 83    
Maximum Humidity 93    
Minimum Humidity 78    
Precipitation
Precipitation T in 0.05 in 0.55 in (1983)
Month to date precipitation 1.30 1.63  
Year to date precipitation 1.30 1.63  
Snow
Snow 0.00 in 0.30 in in ()
Month to date snowfall 11.7 13.6  
Since 1 July snowfall 42.0 38.5  
Snow Depth 5.00 in   
Wind
Wind Speed 1 mph   
Max Wind Speed 5 mph   
Max Gust Speed mph   
Visibility 10 miles   
Events Snow   

Key: T is trace of precipitation, MM is missing value
Source: NWS Daily Summary
Time(PST)TemperatureDew PointHumidity Pressure Visibility Wind DirectionWind SpeedGust SpeedPrecipitationEvents Conditions
12:02 AM 26.6°F 21.2°F 80% 29.95 in 10.0 miles Calm Calm - N/A   Overcast
12:55 AM 27.0°F 23.0°F 85% 29.99 in 10.0 miles ENE 4.6 mph - N/A   Overcast
1:55 AM 28.0°F 23.0°F 81% 29.98 in 10.0 miles Calm Calm - N/A   Overcast
2:55 AM 28.0°F 23.0°F 81% 29.98 in 10.0 miles NW 3.5 mph - N/A   Overcast
3:55 AM 28.0°F 24.1°F 85% 29.97 in 10.0 miles WSW 3.5 mph - N/A   Overcast
4:55 AM 28.0°F 24.1°F 85% 29.96 in 9.0 miles Calm Calm - N/A   Overcast
5:22 AM 28.4°F 24.8°F 86% 29.93 in 5.0 miles Calm Calm - 0.00 in   Overcast
5:55 AM 27.0°F 24.1°F 89% 29.97 in 9.0 miles SW 3.5 mph - 0.00 in   Overcast
6:33 AM 26.6°F 24.8°F 93% 29.94 in 10.0 miles Calm Calm - N/A   Overcast
6:55 AM 27.0°F 24.1°F 89% 29.97 in 10.0 miles Calm Calm - N/A   Overcast
7:55 AM 28.0°F 23.0°F 81% 29.98 in 10.0 miles Calm Calm - N/A   Overcast
8:55 AM 28.0°F 24.1°F 85% 29.99 in 10.0 miles Calm Calm - N/A   Overcast
9:55 AM 28.0°F 24.1°F 85% 30.00 in 10.0 miles Calm Calm - N/A   Overcast
10:55 AM 28.9°F 25.0°F 85% 29.99 in 10.0 miles Calm Calm - N/A   Overcast
11:55 AM 28.9°F 25.0°F 85% 29.99 in 4.0 miles Calm Calm - 0.00 in Snow Light Snow
12:55 PM 30.0°F 24.1°F 79% 29.97 in 10.0 miles Calm Calm - 0.00 in   Overcast
1:55 PM 28.9°F 24.1°F 82% 29.95 in 10.0 miles Calm Calm - N/A   Overcast
2:55 PM 30.0°F 24.1°F 79% 29.96 in 10.0 miles NNW 3.5 mph - N/A   Overcast
3:55 PM 30.0°F 24.1°F 79% 29.96 in 10.0 miles Calm Calm - N/A   Overcast
4:55 PM 30.0°F 24.1°F 79% 29.97 in 10.0 miles Calm Calm - N/A   Overcast
5:55 PM 30.0°F 24.1°F 79% 29.98 in 10.0 miles Calm Calm - N/A   Overcast
6:55 PM 30.0°F 24.1°F 79% 29.99 in 10.0 miles Calm Calm - N/A   Overcast
7:55 PM 30.0°F 24.1°F 79% 29.99 in 10.0 miles Calm Calm - N/A   Overcast
8:55 PM 28.9°F 23.0°F 78% 30.00 in 10.0 miles Calm Calm - N/A   Overcast
9:55 PM 28.9°F 24.1°F 82% 30.01 in 10.0 miles Calm Calm - N/A   Overcast
10:55 PM 28.0°F 24.1°F 85% 30.01 in 10.0 miles SSW 4.6 mph - N/A   Overcast
11:55 PM 28.0°F 24.1°F 85% 30.01 in 10.0 miles South 3.5 mph - N/A   Overcast
Moon Phase
Jan. 26 Jan. 26 Feb. 03 Feb. 10 Feb. 17
Sunrise:07:33 AM (PST) Moon Rise:04:57 PM (PST)1/26
Sunset:04:53 PM (PST) Moon Set:06:51 AM (PST)1/26

Copyright © 2014 The Weather Underground, Inc.